CW1950 Weather Reports


Display with metric or nautical units.
time (UTC)temp
F
wind
direction
speed
MPH
gust
MPH
rain 1hr
in
rain 24hr
in
rain mn
in
humidity
%
barometer
mb
20260508120003 55 318 2.0 6.0 0.00 0.00 0.00 84 1014.7
20260508110503 56 315 3.0 6.0 0.00 0.00 0.00 84 1014.6
20260508100503 56 318 1.0 3.0 0.00 0.00 0.00 84 1014.5
20260508100004 56 316 2.0 5.0 0.00 0.00 0.00 84 1014.5
20260508090503 57 358 2.0 3.0 0.00 0.00 0.00 84 1014.3
20260508090003 57 353 1.0 3.0 0.00 0.00 0.00 84 1014.3
20260508080503 58 315 2.0 3.0 0.00 0.00 0.00 84 1014.3
20260508070504 59 281 2.0 3.0 0.00 0.00 0.00 84 1014.1
20260508070004 59 282 1.0 5.0 0.00 0.00 0.00 84 1014.1
20260508060503 59 255 1.0 3.0 0.00 0.00 0.00 82 1014.2
20260508060004 59 283 1.0 5.0 0.00 0.00 0.00 82 1014.1
20260508050503 60 0 0.0 1.0 0.00 0.00 0.00 80 1013.8
20260508050004 60 307 1.0 2.0 0.00 0.00 0.00 80 1013.8
20260508040504 62 1 0.0 1.0 0.00 0.00 0.00 76 1013.3
20260508040003 62 14 0.0 6.0 0.00 0.00 0.00 76 1013.2
20260508030004 67 12 2.0 6.0 0.00 0.00 0.00 68 1012.4
20260508020503 71 209 1.0 5.0 0.00 0.00 0.00 62 1011.9
20260508020003 71 295 1.0 10.0 0.00 0.00 0.00 62 1011.9
20260508010503 75 149 2.0 5.0 0.00 0.00 0.00 53 1011.7
20260508000504 77 102 2.0 6.0 0.00 0.00 0.00 52 1011.7
20260508000003 77 17 2.0 9.0 0.00 0.00 0.00 52 1011.7
20260507230503 79 86 2.0 7.0 0.00 0.00 0.00 53 1011.8
20260507230004 79 75 3.0 7.0 0.00 0.00 0.00 52 1011.8
20260507220503 79 158 2.0 7.0 0.00 0.00 0.00 54 1012.3
20260507220004 79 85 2.0 8.0 0.00 0.00 0.00 56 1012.3
20260507210005 77 163 3.0 8.0 0.00 0.00 0.00 60 1012.9
20260507200504 73 142 2.0 5.0 0.00 0.00 0.00 66 1013.5
20260507200004 72 146 1.0 8.0 0.00 0.00 0.00 68 1013.6
20260507190504 68 310 3.0 8.0 0.00 0.00 0.00 72 1014.4
20260507190004 68 36 2.0 8.0 0.00 0.00 0.00 74 1014.4
20260507180503 65 254 3.0 8.0 0.00 0.00 0.00 80 1014.9
20260507180004 65 251 3.0 7.0 0.00 0.00 0.00 80 1014.9
20260507170504 61 338 1.0 3.0 0.00 0.00 0.00 84 1015.0
20260507170003 61 294 2.0 5.0 0.00 0.00 0.00 84 1015.0
20260507160504 58 307 1.0 2.0 0.00 0.00 0.00 91 1015.3
20260507160004 58 315 1.0 3.0 0.00 0.00 0.00 91 1015.3
20260507150504 57 317 1.0 3.0 0.00 0.00 0.00 92 1015.3
20260507150004 56 339 2.0 5.0 0.00 0.00 0.00 92 1015.3
20260507140503 56 314 1.0 3.0 0.00 0.00 0.00 90 1015.2
20260507140004 56 334 2.0 3.0 0.00 0.00 0.00 90 1015.2
20260507130503 56 353 1.0 3.0 0.00 0.00 0.00 90 1014.7
20260507130004 55 329 1.0 3.0 0.00 0.00 0.00 90 1014.6